Regional Weather Roundup
Issued by NWS

Home | Current Version | Previous Version | Graphics & Text | Print | Product List | Glossary On
Versions: 1 2 3 4 5 6 7 8 9 10 11 12 13 14 15 16 17 18 19 20 21 22 23 24 25 26 27
000
ASUS45 KSLC 212210
RWRUT

UTAH REGIONAL WEATHER ROUNDUP
NATIONAL WEATHER SERVICE SALT LAKE CITY UT
400 PM MDT WED JUN 21 2017

UTZ001>011-023>025-212300-

NORTHERN UTAH

CITY           SKY/WX    TMP DP  RH WIND       PRES   REMARKS
BRIGHAM CITY   SUNNY     93  37  14 SW5       29.94F
DUGWAY         MOSUNNY   99  35  10 NW8       29.90  HX  93
HILL AFB       SUNNY     92  43  18 NW9       29.98F
LOGAN          SUNNY     94  50  22 VRB5      29.95F HX  91
OGDEN          SUNNY     93  48  21 VRB6      29.94F
SALT LAKE CITY MOSUNNY   98  44  15 NW9       29.91F HX  94
TOOELE VALLEY  SUNNY     91  55  29 N10       29.93F
WENDOVER         N/A     96  46  18 E12       29.90F HX  92
HEBER CITY     MOSUNNY   90  37  15 SW9       30.02S
WEST JORDAN    MOSUNNY   94  61  33 N8        29.96S HX  94

$$

UTZ011>015-024>027-212300-

CENTRAL/NORTHEAST UTAH

CITY           SKY/WX    TMP DP  RH WIND       PRES   REMARKS
PROVO AIRPORT  MOSUNNY   91  57  31 NW17      29.93F HX  90
MOAB/CANYONLAN MOSUNNY  103  24   6 W12G21    29.89F HX  95
DELTA          SUNNY     99  27   8 W12       29.93F HX  92
PRICE          SUNNY     98  27   8 W17G29    30.03F HX  92
ROOSEVELT      SUNNY     95  36  12 NE15      30.00F HX  90
VERNAL         SUNNY     92  37  14 VRB6      30.01F

$$

UTZ013>016-019>022-027-212300-

SOUTHERN UTAH

CITY           SKY/WX    TMP DP  RH WIND       PRES   REMARKS
BRYCE CANYON   MOSUNNY   90  25   9 SW22G33   30.23F
CEDAR CITY     SUNNY     99  24   7 SW15G25   30.02F HX  92
MILFORD        MOSUNNY  103  22   5 SW23G43   29.94F HX  95
ST GEORGE      PTCLDY   111  29   6 W23       29.76F HX 103
HANKSVILLE     PTSUNNY  100  32   9 SW18      29.92F HX  94
BLANDING       MOSUNNY  100  30   8 SW16G22   30.10F HX  93

$$

REGIONAL REPORTS     COLORADO/ARIZONA

CITY           SKY/WX    TMP DP  RH WIND       PRES   REMARKS
CRAIG, CO      CLOUDY    79  35  20 NW39G53   30.13R
GRAND JUNCTION CLOUDY   101  29   8 N17G29    29.93F HX  94
RIFLE, CO      CLOUDY    93  31  11 SW30G37   30.02R
MONTROSE, CO   LGT RAIN  94  31  10 VRB3G21   30.04F
CORTEZ, CO     SUNNY     96  30   9 NE17G32   30.06F HX  90
COLORADO CITY    N/A    106  32   8 NW15G38   30.00F HX  99
PAGE, AZ       MOSUNNY  105  25   6 MISG      29.88F HX  97
GRAND CANYON   SUNNY     92  24   8 W10G23    30.14F
KINGMAN, AZ    SUNNY    109  31   7 SW12G30   29.86F HX 101
FLAGSTAFF, AZ  MOSUNNY   91  22   8 SW15G21   30.18F

$$

REGIONAL REPORTS    NEVADA/IDAHO/WYOMING

CITY           SKY/WX    TMP DP  RH WIND       PRES   REMARKS
LAS VEGAS, NV  MOSUNNY  113   5   2 S13G25    29.71F HX 103
ELY, NY        SUNNY     93  37  14 VRB3G16   30.05F
ELKO, NV       SUNNY     95  37  13 SW7       29.98F HX  90
POCATELLO, ID  MOSUNNY   87  49  26 W22       29.99F
BURLEY, ID     MOSUNNY   77  47  34 W9        30.00F
FORT BRIDGER,    N/A     90  33  13 W23G30    30.16S
EVANSTON, WY   SUNNY     86  40  19 W23G29    30.15F
ROCK SPRINGS,  CLOUDY    83  35  18 SW17G24   30.08F
KEMMERER, WY     N/A     82  36  18 W25G32    30.16S

$$




USA.gov is the U.S. government's official web portal to all federal, state and local government web resources and services.